, NV

(GMT )
Eureka Airport

Weather History for K05U - January, 2014

Change the Weather History Date:

Wednesday, January 1, 2014

  Actual Average Record
Temperature  
Mean Temperature 29 °F -  
Max Temperature 44 °F - - ()
Min Temperature 14 °F - - ()
Degree Days  
Heating Degree Days 36    
Moisture  
Dew Point 18 °F    
Average Humidity 73    
Maximum Humidity 93    
Minimum Humidity 39    
Precipitation  
Precipitation 0.00 in - - ()
Sea Level Pressure  
Sea Level Pressure 30.36 in    
Wind  
Wind Speed 5 mph (SSW)    
Max Wind Speed 9 mph    
Max Gust Speed -    
Visibility 10 miles    
Events      
Averages and records for this station are not official NWS values.
T = Trace of Precipitation, MM = Missing Value Source: NWS Daily Summary

Daily Weather History Graph

Daily Weather History Graph

Search for Another Location

Airport or City:

Trip Planner

Search our weather history database for the weather conditions in past years. The results will help you decide how hot, cold, wet, or windy it might be!

Date:

Astronomy

Jan. 01, 2014 Rise Set
Actual Time 7:04 AM PST 4:30 PM PST
Civil Twilight 6:34 AM PST 5:01 PM PST
Nautical Twilight 6:00 AM PST 5:34 PM PST
Astronomical Twilight 5:28 AM PST 6:07 PM PST
Moon 6:59 AM PST (1/1) 5:20 PM PST (1/1)
Length of Visible Light 10h 26m
Length of Day
9h 26m
New Moon, 0% of the Moon is Illuminated
Jan 1
New Moon
Jan 7
First Quarter
Jan 15
Full
Jan 23
Last Quarter
Jan 30
New

Hourly Weather History & Observations

Time (PST) Temp. Windchill Dew Point Humidity Pressure Visibility Wind Dir Wind Speed Gust Speed Precip Events Conditions
12:05 AM 17.6 °F 8.2 °F 14.0 °F 86% 30.32 in 10.0 mi SSW 6.9 mph - N/A   Clear
12:25 AM 17.6 °F 8.2 °F 14.0 °F 86% 30.32 in 10.0 mi South 6.9 mph - N/A   Clear
12:45 AM 19.4 °F 12.8 °F 14.0 °F 80% 30.32 in 10.0 mi South 4.6 mph - N/A   Clear
1:05 AM 17.6 °F 12.3 °F 14.0 °F 86% 30.32 in 10.0 mi South 3.5 mph - N/A   Clear
1:25 AM 19.4 °F 10.4 °F 14.0 °F 80% 30.32 in 10.0 mi SSW 6.9 mph - N/A   Clear
1:45 AM 21.2 °F 14.9 °F 15.8 °F 80% 30.33 in 5.0 mi SSW 4.6 mph - N/A   Clear
2:05 AM 17.6 °F 10.7 °F 14.0 °F 86% 30.34 in 10.0 mi SSE 4.6 mph - N/A   Clear
2:25 AM 17.6 °F 12.3 °F 12.2 °F 79% 30.34 in 10.0 mi SSW 3.5 mph - N/A   Clear
2:45 AM 17.6 °F - 14.0 °F 86% 30.35 in 10.0 mi Calm Calm - N/A   Clear
3:05 AM 15.8 °F 10.2 °F 12.2 °F 86% 30.35 in 10.0 mi South 3.5 mph - N/A   Partly Cloudy
3:25 AM 15.8 °F 7.2 °F 12.2 °F 86% 30.35 in 10.0 mi SW 5.8 mph - N/A   Scattered Clouds
3:45 AM 14.0 °F - 10.4 °F 86% 30.35 in 10.0 mi Calm Calm - N/A   Partly Cloudy
4:05 AM 15.8 °F 8.6 °F 12.2 °F 86% 30.36 in 10.0 mi SW 4.6 mph - N/A   Clear
4:25 AM 15.8 °F 7.2 °F 10.4 °F 79% 30.36 in 10.0 mi SSW 5.8 mph - N/A   Clear
4:45 AM 14.0 °F 6.5 °F 10.4 °F 86% 30.36 in 10.0 mi South 4.6 mph - N/A   Clear
5:05 AM 14.0 °F 8.2 °F 8.6 °F 79% 30.36 in 10.0 mi SSW 3.5 mph - N/A   Clear
5:25 AM 14.0 °F 2.9 °F 10.4 °F 86% 30.36 in 10.0 mi SSW 8.1 mph - N/A   Clear
5:45 AM 15.8 °F 6.1 °F 12.2 °F 86% 30.36 in 10.0 mi SW 6.9 mph - N/A   Clear
6:05 AM 15.8 °F 5.1 °F 12.2 °F 86% 30.36 in 10.0 mi SSW 8.1 mph - N/A   Clear
6:25 AM 17.6 °F 6.4 °F 14.0 °F 86% 30.37 in 10.0 mi SSW 9.2 mph - N/A   Clear
6:45 AM 17.6 °F 7.3 °F 14.0 °F 86% 30.38 in 10.0 mi SSW 8.1 mph - N/A   Clear
7:05 AM 19.4 °F 8.6 °F 14.0 °F 80% 30.38 in 10.0 mi SSW 9.2 mph - N/A   Clear
7:25 AM 19.4 °F 12.8 °F 14.0 °F 80% 30.39 in 10.0 mi South 4.6 mph - N/A   Clear
7:45 AM 17.6 °F 8.2 °F 12.2 °F 79% 30.40 in 10.0 mi SW 6.9 mph - N/A   Clear
8:05 AM 19.4 °F - 15.8 °F 86% 30.41 in 10.0 mi Calm Calm - N/A   Clear
8:25 AM 23.0 °F 15.8 °F 15.8 °F 74% 30.41 in 10.0 mi SSW 5.8 mph - N/A   Clear
8:45 AM 24.8 °F 16.9 °F 15.8 °F 69% 30.41 in 10.0 mi WSW 6.9 mph - N/A   Clear
9:05 AM 28.4 °F 24.6 °F 17.6 °F 64% 30.41 in 10.0 mi SSW 3.5 mph - N/A   Clear
9:25 AM 30.2 °F 26.7 °F 17.6 °F 60% 30.41 in 10.0 mi SSW 3.5 mph - N/A   Clear
9:45 AM 32.0 °F 28.7 °F 19.4 °F 60% 30.41 in 10.0 mi SW 3.5 mph - N/A   Clear
10:05 AM 33.8 °F 29.6 °F 19.4 °F 56% 30.40 in 10.0 mi WSW 4.6 mph - N/A   Clear
10:25 AM 35.6 °F 31.7 °F 19.4 °F 52% 30.40 in 10.0 mi WSW 4.6 mph - N/A   Clear
10:45 AM 35.6 °F - 19.4 °F 52% 30.39 in 10.0 mi Calm Calm - N/A   Clear
11:05 AM 37.4 °F - 21.2 °F 52% 30.38 in 10.0 mi Calm Calm - N/A   Clear
11:25 AM 37.4 °F - 23.0 °F 56% 30.38 in 10.0 mi Calm Calm - N/A   Clear
11:45 AM 39.2 °F 37.0 °F 21.2 °F 49% 30.37 in 10.0 mi ENE 3.5 mph - N/A   Clear
12:05 PM 41.0 °F - 17.6 °F 39% 30.36 in 10.0 mi Calm Calm - N/A   Clear
12:25 PM 41.0 °F - 19.4 °F 42% 30.36 in 10.0 mi Calm Calm - N/A   Clear
12:45 PM 41.0 °F 39.0 °F 19.4 °F 42% 30.35 in 10.0 mi NE 3.5 mph - N/A   Clear
1:05 PM 41.0 °F 39.0 °F 19.4 °F 42% 30.35 in 10.0 mi ENE 3.5 mph - N/A   Clear
1:25 PM 42.8 °F 41.1 °F 23.0 °F 46% 30.34 in 10.0 mi ENE 3.5 mph - N/A   Clear
1:45 PM 42.8 °F 41.1 °F 23.0 °F 46% 30.34 in 10.0 mi NE 3.5 mph - N/A   Clear
2:05 PM 44.6 °F - 24.8 °F 46% 30.34 in 10.0 mi Calm Calm - N/A   Clear
2:25 PM 44.6 °F 43.1 °F 24.8 °F 46% 30.34 in 10.0 mi NE 3.5 mph - N/A   Clear
2:45 PM 44.6 °F 43.1 °F 24.8 °F 46% 30.34 in 10.0 mi North 3.5 mph - N/A   Clear
3:05 PM 44.6 °F 43.1 °F 26.6 °F 49% 30.34 in 10.0 mi NE 3.5 mph - N/A   Clear
3:25 PM 42.8 °F 41.1 °F 24.8 °F 49% 30.34 in 10.0 mi NNE 3.5 mph - N/A   Clear
3:45 PM 42.8 °F 41.1 °F 24.8 °F 49% 30.34 in 10.0 mi North 3.5 mph - N/A   Clear
4:05 PM 41.0 °F - 24.8 °F 53% 30.35 in 10.0 mi Calm Calm - N/A   Clear
4:25 PM 39.2 °F 37.0 °F 24.8 °F 56% 30.35 in 10.0 mi NE 3.5 mph - N/A   Clear
4:45 PM 35.6 °F - 24.8 °F 65% 30.35 in 10.0 mi Calm Calm - N/A   Clear
5:05 PM 32.0 °F 28.7 °F 24.8 °F 75% 30.35 in 10.0 mi ESE 3.5 mph - N/A   Clear
5:25 PM 28.4 °F 24.6 °F 23.0 °F 80% 30.36 in 10.0 mi SSW 3.5 mph - N/A   Clear
5:45 PM 26.6 °F 22.6 °F 21.2 °F 80% 30.37 in 10.0 mi South 3.5 mph - N/A   Clear
6:05 PM 24.8 °F 20.5 °F 21.2 °F 86% 30.37 in 10.0 mi South 3.5 mph - N/A   Clear
6:25 PM 23.0 °F 18.4 °F 19.4 °F 86% 30.37 in 10.0 mi SSW 3.5 mph - N/A   Clear
6:45 PM 23.0 °F 17.0 °F 19.4 °F 86% 30.37 in 10.0 mi South 4.6 mph - N/A   Clear
7:00 PM 23.0 °F 15.8 °F 19.4 °F 86% 30.38 in 10.0 mi South 5.8 mph - N/A   Clear
7:25 PM 23.0 °F 18.4 °F 19.4 °F 86% 30.37 in 10.0 mi South 3.5 mph - N/A   Clear
7:45 PM 23.0 °F 18.4 °F 19.4 °F 86% 30.38 in 10.0 mi SSW 3.5 mph - N/A   Clear
8:05 PM 23.0 °F 17.0 °F 19.4 °F 86% 30.37 in 10.0 mi South 4.6 mph - N/A   Clear
8:25 PM 19.4 °F 11.5 °F 17.6 °F 93% 30.36 in 10.0 mi SSW 5.8 mph - N/A   Clear
8:45 PM 23.0 °F 17.0 °F 19.4 °F 86% 30.36 in 10.0 mi SSW 4.6 mph - N/A   Clear
9:05 PM 21.2 °F 13.6 °F 17.6 °F 86% 30.35 in 10.0 mi SSW 5.8 mph - N/A   Clear
9:25 PM 21.2 °F 13.6 °F 19.4 °F 93% 30.35 in 10.0 mi SSW 5.8 mph - N/A   Clear
9:45 PM 23.0 °F 13.9 °F 19.4 °F 86% 30.35 in 10.0 mi SSW 8.1 mph - N/A   Clear
10:05 PM 23.0 °F 13.9 °F 19.4 °F 86% 30.35 in 10.0 mi SSW 8.1 mph - N/A   Clear
10:25 PM 23.0 °F 18.4 °F 19.4 °F 86% 30.35 in 10.0 mi SW 3.5 mph - N/A   Clear
10:40 PM 19.4 °F 14.3 °F 17.6 °F 93% 30.35 in 10.0 mi SSW 3.5 mph - N/A   Clear
11:05 PM 19.4 °F 12.8 °F 17.6 °F 93% 30.34 in 10.0 mi SW 4.6 mph - N/A   Clear
11:25 PM 19.4 °F 14.3 °F 17.6 °F 93% 30.34 in 10.0 mi SSW 3.5 mph - N/A   Clear
11:45 PM 21.2 °F 12.6 °F 17.6 °F 86% 30.34 in 10.0 mi SW 6.9 mph - N/A   Clear